This is the latest recevied weather packets stored in our database for station/object IK6IHU-3. If no packets are shown the sender has not sent any weather packets the latest 10 day(s).
| Time | Temp. | Humidity | Pressure | Rain* | Wind** | Luminosity | Snow |
|---|---|---|---|---|---|---|---|
| 1777554792 | 12.78° C | 60% | 1020.5 hPa | 0 mm | - | 0 W/m² | - |
| 1777554731 | 12.78° C | 61% | 1020.5 hPa | 0 mm | - | 0 W/m² | - |
| 1777554672 | 12.78° C | 61% | 1020.4 hPa | 0 mm | - | 0 W/m² | - |
| 1777554612 | 12.78° C | 60% | 1020.6 hPa | 0 mm | - | 0 W/m² | - |
| 1777554552 | 12.78° C | 60% | 1020.4 hPa | 0 mm | - | 0 W/m² | - |
| 1777554492 | 12.78° C | 59% | 1020.4 hPa | 0 mm | - | 0 W/m² | - |
| 1777554431 | 12.78° C | 58% | 1020.4 hPa | 0 mm | - | 0 W/m² | - |
| 1777554372 | 13.33° C | 57% | 1020.4 hPa | 0 mm | - | 0 W/m² | - |
| 1777554312 | 13.89° C | 58% | 1020.5 hPa | 0 mm | - | 0 W/m² | - |
| 1777554251 | 13.89° C | 57% | 1020.5 hPa | 0 mm | - | 0 W/m² | - |
| 1777554192 | 13.89° C | 58% | 1020.5 hPa | 0 mm | - | 0 W/m² | - |
| 1777554132 | 13.89° C | 58% | 1020.2 hPa | 0 mm | - | 0 W/m² | - |
| 1777554072 | 14.44° C | 59% | 1020.5 hPa | 0 mm | - | 0 W/m² | - |
| 1777554011 | 14.44° C | 58% | 1020.5 hPa | 0 mm | - | 0 W/m² | - |
| 1777553952 | 14.44° C | 59% | 1020.5 hPa | 0 mm | - | 0 W/m² | - |
| 1777553892 | 14.44° C | 59% | 1020.5 hPa | 0 mm | - | 0 W/m² | - |
| 1777553832 | 14.44° C | 60% | 1020.6 hPa | 0 mm | - | 0 W/m² | - |
| 1777553772 | 14.44° C | 61% | 1020.6 hPa | 0 mm | - | 0 W/m² | - |
| 1777553712 | 13.89° C | 60% | 1020.6 hPa | 0 mm | - | 0 W/m² | - |
| 1777553652 | 13.89° C | 60% | 1020.6 hPa | 0 mm | - | 0 W/m² | - |
| 1777553592 | 13.33° C | 59% | 1020.5 hPa | 0 mm | - | 0 W/m² | - |
| 1777553532 | 13.33° C | 59% | 1020.8 hPa | 0 mm | - | 0 W/m² | - |
| 1777553472 | 13.33° C | 60% | 1020.8 hPa | 0 mm | - | 0 W/m² | - |
| 1777553412 | 13.33° C | 60% | 1020.9 hPa | 0 mm | - | 0 W/m² | - |
| 1777553352 | 13.89° C | 60% | 1020.7 hPa | 0 mm | - | 0 W/m² | - |
* Rain latest hour (hover to see other rain measurements)
** Current wind speed in m/s (hover to see current wind gust speed)